TRA75K EHAM-LEIB

Flight info

Callsign TRA75K
Flight time 2h 23m
Altitude 35000
Route LOPIK N852 LNO DCT SUTAL DCT GTQ DCT POGOL DCT LASAT DCT MOROK DCT GILIR DCT GEVEA DCT INCUS DCT BALSI DCT RETNO DCT TUPOX DCT MTG DCT DIVKO DCT VATIR N852 PIVUS Z237 SULID DCT DIMIB DCT POS
Aircraft A21N/M-SDE2E3FGHIRWXY/LB1

Departure

Time 2026-05-04 14:21
Airport Amsterdam Airport Schiphol (EHAM)

Arrival

Time 2026-05-04 16:45
Airport Ibiza Airport (LEIB)
Time Latitude Longitude Altitude Speed Heading
2026-05-04 13:35 52.30464 4.76558 4 ft 0 kts 58°
2026-05-04 13:58 52.30458 4.76494 4 ft 0 kts 135°
2026-05-04 14:01 52.30428 4.76523 4 ft 5 kts 149°
2026-05-04 14:02 52.30391 4.76558 4 ft 7 kts 150°
2026-05-04 14:02 52.30353 4.76627 4 ft 10 kts 99°
2026-05-04 14:02 52.30379 4.76741 4 ft 12 kts 55°
2026-05-04 14:02 52.30426 4.76863 4 ft 14 kts 58°
2026-05-04 14:03 52.30480 4.77003 4 ft 15 kts 56°
2026-05-04 14:03 52.30540 4.77159 4 ft 17 kts 57°
2026-05-04 14:03 52.30604 4.77331 4 ft 18 kts 57°
2026-05-04 14:03 52.30639 4.77452 4 ft 8 kts 83°
2026-05-04 14:04 52.30704 4.77592 4 ft 10 kts
2026-05-04 14:04 52.30780 4.77597 4 ft 12 kts
2026-05-04 14:04 52.30865 4.77606 4 ft 13 kts
2026-05-04 14:05 52.31060 4.77625 4 ft 15 kts
2026-05-04 14:05 52.31169 4.77634 4 ft 16 kts
2026-05-04 14:05 52.31285 4.77644 4 ft 17 kts
2026-05-04 14:06 52.31407 4.77655 4 ft 18 kts 358°
2026-05-04 14:06 52.31515 4.77553 4 ft 19 kts 315°
2026-05-04 14:06 52.31577 4.77366 4 ft 20 kts 269°
2026-05-04 14:06 52.31569 4.77139 4 ft 20 kts 267°
2026-05-04 14:07 52.31561 4.76902 4 ft 21 kts 267°
2026-05-04 14:07 52.31539 4.76675 4 ft 3 kts 283°
2026-05-04 14:07 52.31540 4.76674 4 ft 1 kts 286°
2026-05-04 14:08 52.31544 4.76650 4 ft 3 kts 287°
2026-05-04 14:08 52.31550 4.76599 4 ft 6 kts 271°
2026-05-04 14:08 52.31548 4.76519 5 ft 11 kts 267°
2026-05-04 14:08 52.31543 4.76366 5 ft 15 kts 267°
2026-05-04 14:09 52.31531 4.76001 5 ft 17 kts 267°
2026-05-04 14:09 52.31527 4.75872 4 ft 18 kts 267°
2026-05-04 14:10 52.31511 4.75453 4 ft 19 kts 266°
2026-05-04 14:10 52.31506 4.75230 4 ft 20 kts 264°
2026-05-04 14:10 52.31497 4.74998 4 ft 21 kts 267°
2026-05-04 14:10 52.31488 4.74758 4 ft 22 kts 266°
2026-05-04 14:11 52.31479 4.74512 5 ft 19 kts 266°
2026-05-04 14:11 52.31480 4.74213 4 ft 9 kts 296°
2026-05-04 14:11 52.31532 4.74154 4 ft 10 kts 353°
2026-05-04 14:12 52.31608 4.74158 4 ft 12 kts
2026-05-04 14:12 52.31693 4.74167 4 ft 13 kts
2026-05-04 14:12 52.31888 4.74187 4 ft 15 kts
2026-05-04 14:13 52.31967 4.74191 4 ft 10 kts 357°
2026-05-04 14:13 52.32005 4.74168 4 ft 0 kts 323°
2026-05-04 14:14 52.32006 4.74166 4 ft 1 kts 323°
2026-05-04 14:14 52.32019 4.74146 4 ft 4 kts 309°
2026-05-04 14:15 52.32039 4.74007 3 ft 10 kts 272°
2026-05-04 14:15 52.32049 4.73710 5 ft 16 kts 274°
2026-05-04 14:16 52.32111 4.73321 4 ft 21 kts 321°
2026-05-04 14:16 52.32224 4.73165 4 ft 23 kts 319°
2026-05-04 14:17 52.32491 4.72794 4 ft 26 kts 320°
2026-05-04 14:17 52.32626 4.72603 4 ft 21 kts 316°
2026-05-04 14:17 52.32826 4.72250 4 ft 24 kts 312°
2026-05-04 14:18 52.32940 4.72036 4 ft 26 kts 310°
2026-05-04 14:18 52.33147 4.71630 4 ft 20 kts 283°
2026-05-04 14:19 52.32961 4.71256 4 ft 24 kts 221°
2026-05-04 14:19 52.32901 4.71167 4 ft 3 kts 222°
2026-05-04 14:19 52.32881 4.71136 4 ft 5 kts 228°
2026-05-04 14:19 52.32862 4.71079 4 ft 6 kts 254°
2026-05-04 14:20 52.32861 4.70998 3 ft 8 kts 276°
2026-05-04 14:20 52.32876 4.70911 3 ft 9 kts 316°
2026-05-04 14:20 52.32961 4.70897 2 ft 22 kts
2026-05-04 14:21 52.34143 4.71009 1 ft 142 kts
2026-05-04 14:21 52.35280 4.71113 43 ft 178 kts
2026-05-04 14:21 52.36514 4.71215 567 ft 180 kts
2026-05-04 14:21 52.37797 4.71313 1070 ft 189 kts
2026-05-04 14:22 52.39139 4.71474 1575 ft 199 kts
2026-05-04 14:22 52.40557 4.71693 2085 ft 211 kts
2026-05-04 14:22 52.42045 4.71968 2694 ft 221 kts
2026-05-04 14:22 52.43646 4.72265 3112 ft 240 kts
2026-05-04 14:23 52.47121 4.72890 4405 ft 257 kts
2026-05-04 14:23 52.48931 4.73107 5050 ft 265 kts 359°
2026-05-04 14:23 52.50797 4.73128 5757 ft 271 kts
2026-05-04 14:24 52.52617 4.73972 6432 ft 276 kts 28°
2026-05-04 14:24 52.54024 4.76107 7106 ft 281 kts 59°
2026-05-04 14:24 52.54592 4.79169 7779 ft 284 kts 87°
2026-05-04 14:24 52.54271 4.82341 8463 ft 286 kts 115°
2026-05-04 14:25 52.53158 4.85046 9158 ft 287 kts 137°
2026-05-04 14:25 52.49559 4.87787 10383 ft 299 kts 168°
2026-05-04 14:25 52.47478 4.88583 10695 ft 317 kts 168°
2026-05-04 14:26 52.45266 4.89476 10974 ft 336 kts 168°
2026-05-04 14:26 52.42948 4.90470 11245 ft 354 kts 167°
2026-05-04 14:26 52.40511 4.91548 11500 ft 370 kts 167°
2026-05-04 14:26 52.37973 4.92690 11720 ft 385 kts 166°
2026-05-04 14:27 52.35344 4.93882 11942 ft 398 kts 166°
2026-05-04 14:27 52.32715 4.95080 12330 ft 403 kts 166°
2026-05-04 14:27 52.29951 4.96337 12811 ft 405 kts 166°
2026-05-04 14:27 52.27229 4.97569 13296 ft 407 kts 166°
2026-05-04 14:28 52.24493 4.98806 13773 ft 410 kts 167°
2026-05-04 14:28 52.21732 5.00052 14195 ft 411 kts 167°
2026-05-04 14:28 52.18975 5.01298 14586 ft 414 kts 167°
2026-05-04 14:28 52.16189 5.02553 15002 ft 416 kts 167°
2026-05-04 14:29 52.10584 5.05072 15825 ft 420 kts 167°
2026-05-04 14:29 52.04927 5.07595 16493 ft 423 kts 167°
2026-05-04 14:30 52.02078 5.08867 16797 ft 425 kts 167°
2026-05-04 14:30 51.99220 5.10148 17101 ft 427 kts 166°
2026-05-04 14:30 51.93478 5.12715 17762 ft 428 kts 166°
2026-05-04 14:31 51.90605 5.13998 18070 ft 429 kts 166°
2026-05-04 14:31 51.84821 5.16567 18629 ft 433 kts 166°
2026-05-04 14:32 51.78988 5.19153 19174 ft 435 kts 166°
2026-05-04 14:32 51.76064 5.20452 19451 ft 437 kts 167°
2026-05-04 14:32 51.73124 5.21755 19736 ft 439 kts 167°
2026-05-04 14:32 51.70085 5.23094 20053 ft 440 kts 167°
2026-05-04 14:33 51.67221 5.24353 20400 ft 440 kts 167°
2026-05-04 14:33 51.64312 5.25631 20776 ft 439 kts 167°
2026-05-04 14:33 51.61321 5.26945 21104 ft 440 kts 167°
2026-05-04 14:33 51.58368 5.28242 21391 ft 442 kts 167°
2026-05-04 14:34 51.55427 5.29531 21653 ft 445 kts 167°
2026-05-04 14:34 51.52342 5.30874 21918 ft 449 kts 167°
2026-05-04 14:34 51.49362 5.32178 22168 ft 452 kts 167°
2026-05-04 14:34 51.46316 5.33511 22425 ft 455 kts 167°
2026-05-04 14:35 51.43258 5.34846 22674 ft 457 kts 167°
2026-05-04 14:35 51.40177 5.36187 22927 ft 458 kts 167°
2026-05-04 14:35 51.37098 5.37522 23169 ft 460 kts 167°
2026-05-04 14:35 51.34006 5.38859 23425 ft 461 kts 167°
2026-05-04 14:36 51.30909 5.40202 23673 ft 463 kts 168°
2026-05-04 14:36 51.27835 5.41531 23918 ft 463 kts 168°
2026-05-04 14:36 51.24715 5.42722 24167 ft 460 kts 171°
2026-05-04 14:36 51.21589 5.43776 24416 ft 459 kts 171°
2026-05-04 14:37 51.18477 5.44829 24664 ft 457 kts 170°
2026-05-04 14:37 51.15394 5.46118 24918 ft 457 kts 168°
2026-05-04 14:37 51.12338 5.47454 25168 ft 455 kts 168°
2026-05-04 14:37 51.09289 5.48790 25417 ft 454 kts 168°
2026-05-04 14:38 51.06244 5.50122 25668 ft 452 kts 168°
2026-05-04 14:38 51.03212 5.51447 25923 ft 451 kts 168°
2026-05-04 14:38 51.00196 5.52760 26182 ft 450 kts 168°
2026-05-04 14:38 50.97176 5.54071 26412 ft 448 kts 168°
2026-05-04 14:39 50.94182 5.55365 26709 ft 447 kts 168°
2026-05-04 14:39 50.91191 5.56662 27070 ft 445 kts 168°
2026-05-04 14:39 50.88210 5.57954 27446 ft 443 kts 169°
2026-05-04 14:40 50.82298 5.60509 28124 ft 439 kts 169°
2026-05-04 14:40 50.79345 5.61781 28453 ft 437 kts 169°
2026-05-04 14:40 50.76425 5.63034 28781 ft 435 kts 169°
2026-05-04 14:40 50.73522 5.64281 29121 ft 433 kts 169°
2026-05-04 14:41 50.70624 5.65523 29415 ft 432 kts 169°
2026-05-04 14:41 50.67741 5.66779 29725 ft 431 kts 169°
2026-05-04 14:41 50.61995 5.69436 30336 ft 428 kts 168°
2026-05-04 14:42 50.56324 5.72397 30847 ft 431 kts 164°
2026-05-04 14:42 50.53531 5.74138 31095 ft 431 kts 163°
2026-05-04 14:42 50.50747 5.75885 31345 ft 431 kts 163°
2026-05-04 14:43 50.47973 5.77618 31591 ft 431 kts 163°
2026-05-04 14:43 50.45187 5.79350 31850 ft 430 kts 163°
2026-05-04 14:43 50.42403 5.81075 32082 ft 430 kts 163°
2026-05-04 14:43 50.39620 5.82797 32316 ft 429 kts 163°
2026-05-04 14:44 50.36851 5.84513 32544 ft 429 kts 163°
2026-05-04 14:44 50.34079 5.86228 32769 ft 428 kts 163°
2026-05-04 14:44 50.31305 5.87939 32961 ft 428 kts 163°
2026-05-04 14:44 50.28537 5.89643 33173 ft 427 kts 163°
2026-05-04 14:45 50.25776 5.91340 33360 ft 427 kts 163°
2026-05-04 14:45 50.23008 5.93044 33548 ft 427 kts 163°
2026-05-04 14:45 50.20624 5.94509 33688 ft 427 kts 163°
2026-05-04 14:45 50.18763 5.95651 33803 ft 427 kts 163°
2026-05-04 14:46 50.15993 5.97349 33975 ft 426 kts 163°
2026-05-04 14:46 50.13238 5.99034 34137 ft 426 kts 164°
2026-05-04 14:46 50.10479 6.00723 34293 ft 425 kts 163°
2026-05-04 14:46 50.07727 6.02401 34423 ft 426 kts 163°
2026-05-04 14:47 50.04964 6.04086 34557 ft 426 kts 163°
2026-05-04 14:47 50.02204 6.05763 34694 ft 426 kts 163°
2026-05-04 14:47 49.99446 6.07440 34803 ft 426 kts 163°
2026-05-04 14:47 49.96694 6.09113 34930 ft 426 kts 163°
2026-05-04 14:48 49.92672 6.11548 35027 ft 427 kts 163°
2026-05-04 14:48 49.85882 6.15661 34978 ft 428 kts 163°
2026-05-04 14:49 49.80341 6.19007 34986 ft 428 kts 163°
2026-05-04 14:49 49.76663 6.21225 34988 ft 427 kts 163°
2026-05-04 14:50 49.72310 6.23839 34987 ft 428 kts 164°
2026-05-04 14:50 49.66739 6.27177 34987 ft 430 kts 163°
2026-05-04 14:51 49.61168 6.30516 34991 ft 429 kts 163°
2026-05-04 14:51 49.55597 6.33831 34988 ft 429 kts 163°
2026-05-04 14:52 49.50023 6.37153 34987 ft 431 kts 163°
2026-05-04 14:52 49.44482 6.40641 34983 ft 432 kts 161°
2026-05-04 14:53 49.38974 6.44396 34991 ft 431 kts 161°
2026-05-04 14:53 49.33479 6.48136 34986 ft 432 kts 161°
2026-05-04 14:54 49.27966 6.51874 34995 ft 433 kts 161°
2026-05-04 14:54 49.22461 6.55594 34987 ft 433 kts 161°
2026-05-04 14:55 49.16945 6.59322 34994 ft 433 kts 161°
2026-05-04 14:55 49.11468 6.63012 34987 ft 434 kts 161°
2026-05-04 14:56 49.05932 6.66730 34995 ft 434 kts 161°
2026-05-04 14:56 49.00379 6.70322 34984 ft 431 kts 166°
2026-05-04 14:57 48.97472 6.71379 35000 ft 426 kts 177°
2026-05-04 14:57 48.94543 6.71581 35001 ft 419 kts 185°
2026-05-04 14:57 48.88707 6.71278 34987 ft 419 kts 185°
2026-05-04 14:58 48.82861 6.71002 34985 ft 419 kts 185°
2026-05-04 14:58 48.77991 6.70807 34988 ft 420 kts 185°
2026-05-04 14:59 48.71165 6.70541 34987 ft 419 kts 185°
2026-05-04 15:00 48.63384 6.70241 34990 ft 421 kts 185°
2026-05-04 15:00 48.57538 6.70012 34995 ft 422 kts 185°
2026-05-04 15:01 48.48759 6.69672 34987 ft 420 kts 185°
2026-05-04 15:01 48.42909 6.69444 35000 ft 420 kts 185°
2026-05-04 15:02 48.37061 6.69223 34986 ft 420 kts 185°
2026-05-04 15:02 48.31221 6.68998 34998 ft 420 kts 185°
2026-05-04 15:03 48.25369 6.68771 35008 ft 421 kts 185°
2026-05-04 15:03 48.19524 6.68548 34998 ft 421 kts 185°
2026-05-04 15:04 48.13677 6.68325 35004 ft 421 kts 185°
2026-05-04 15:04 48.07835 6.68101 35010 ft 419 kts 185°
2026-05-04 15:05 48.01992 6.67880 35007 ft 419 kts 185°
2026-05-04 15:05 47.96154 6.67658 35011 ft 420 kts 185°
2026-05-04 15:06 47.90302 6.67439 35010 ft 420 kts 185°
2026-05-04 15:07 47.81507 6.67097 35021 ft 421 kts 185°
2026-05-04 15:07 47.75648 6.66866 35019 ft 421 kts 185°
2026-05-04 15:08 47.69808 6.66662 35022 ft 421 kts 185°
2026-05-04 15:08 47.63956 6.66447 35020 ft 422 kts 185°
2026-05-04 15:09 47.58088 6.66229 35023 ft 422 kts 185°
2026-05-04 15:09 47.52224 6.66012 35023 ft 423 kts 185°
2026-05-04 15:10 47.43434 6.65561 35019 ft 418 kts 190°
2026-05-04 15:10 47.37943 6.62994 35025 ft 415 kts 211°
2026-05-04 15:11 47.35575 6.60593 35030 ft 411 kts 219°
2026-05-04 15:11 47.31243 6.55069 35032 ft 412 kts 221°
2026-05-04 15:12 47.26902 6.49550 35035 ft 411 kts 220°
2026-05-04 15:12 47.22532 6.44079 35042 ft 413 kts 220°
2026-05-04 15:13 47.18164 6.38630 35041 ft 412 kts 220°
2026-05-04 15:13 47.13789 6.33183 35043 ft 413 kts 220°
2026-05-04 15:14 47.09400 6.27770 35038 ft 413 kts 218°
2026-05-04 15:14 47.04377 6.23790 35045 ft 417 kts 199°
2026-05-04 15:15 46.98629 6.22504 35066 ft 420 kts 188°
2026-05-04 15:15 46.92819 6.21668 35061 ft 419 kts 188°
2026-05-04 15:16 46.84130 6.20267 35051 ft 421 kts 189°
2026-05-04 15:17 46.75415 6.18828 35049 ft 423 kts 189°
2026-05-04 15:17 46.66632 6.17392 35049 ft 422 kts 189°
2026-05-04 15:18 46.60776 6.16447 35059 ft 424 kts 189°
2026-05-04 15:19 46.51976 6.15025 35062 ft 424 kts 189°
2026-05-04 15:19 46.44399 6.13798 35070 ft 425 kts 189°
2026-05-04 15:20 46.38521 6.12848 35076 ft 425 kts 189°
2026-05-04 15:20 46.32628 6.11902 35085 ft 426 kts 189°
2026-05-04 15:21 46.26743 6.10956 35080 ft 426 kts 189°
2026-05-04 15:22 46.17910 6.09532 35079 ft 425 kts 189°
2026-05-04 15:22 46.09081 6.08130 35077 ft 425 kts 189°
2026-05-04 15:23 46.03184 6.07192 35065 ft 425 kts 189°
2026-05-04 15:23 45.97292 6.06252 35062 ft 426 kts 189°
2026-05-04 15:24 45.85512 6.04367 35050 ft 425 kts 191°
2026-05-04 15:25 45.79669 6.03102 35052 ft 425 kts 192°
2026-05-04 15:26 45.70903 6.01160 35052 ft 424 kts 192°
2026-05-04 15:26 45.62137 5.99231 35050 ft 425 kts 192°
2026-05-04 15:27 45.53390 5.97314 35049 ft 424 kts 192°
2026-05-04 15:28 45.44703 5.95141 35049 ft 421 kts 195°
2026-05-04 15:29 45.36080 5.92437 35047 ft 422 kts 195°
2026-05-04 15:30 45.16062 5.86208 35051 ft 420 kts 196°
2026-05-04 15:31 45.07511 5.83563 35044 ft 419 kts 196°
2026-05-04 15:32 44.93270 5.79174 35030 ft 418 kts 197°
2026-05-04 15:34 44.79053 5.74817 35028 ft 419 kts 197°
2026-05-04 15:34 44.70529 5.72215 35036 ft 417 kts 197°
2026-05-04 15:35 44.62012 5.69622 35024 ft 417 kts 197°
2026-05-04 15:36 44.53486 5.67033 35027 ft 417 kts 197°
2026-05-04 15:36 44.47780 5.65306 35031 ft 418 kts 197°
2026-05-04 15:37 44.42115 5.63594 35045 ft 418 kts 198°
2026-05-04 15:37 44.36517 5.61562 35037 ft 413 kts 205°
2026-05-04 15:38 44.31176 5.58645 35036 ft 411 kts 206°
2026-05-04 15:38 44.25842 5.55697 35031 ft 412 kts 206°
2026-05-04 15:39 44.21406 5.53269 35021 ft 412 kts 206°
2026-05-04 15:40 44.13380 5.48891 35015 ft 414 kts 206°
2026-05-04 15:40 44.08045 5.45990 35005 ft 412 kts 206°
2026-05-04 15:41 44.02701 5.43087 35004 ft 412 kts 206°
2026-05-04 15:41 43.97356 5.40192 35025 ft 411 kts 206°
2026-05-04 15:42 43.92044 5.37316 35028 ft 412 kts 206°
2026-05-04 15:42 43.86731 5.34445 35023 ft 409 kts 206°
2026-05-04 15:43 43.81437 5.31589 35011 ft 408 kts 206°
2026-05-04 15:43 43.76142 5.28751 35013 ft 408 kts 206°
2026-05-04 15:44 43.70848 5.25897 35017 ft 409 kts 206°
2026-05-04 15:44 43.65537 5.23045 35011 ft 408 kts 206°
2026-05-04 15:45 43.60240 5.20208 35017 ft 408 kts 206°
2026-05-04 15:45 43.54950 5.17382 35002 ft 407 kts 206°
2026-05-04 15:46 43.49671 5.14564 34984 ft 407 kts 206°
2026-05-04 15:46 43.44392 5.11754 34986 ft 407 kts 206°
2026-05-04 15:47 43.39129 5.08884 34986 ft 404 kts 210°
2026-05-04 15:47 43.34429 5.04816 34990 ft 399 kts 218°
2026-05-04 15:48 43.29881 5.00466 35000 ft 398 kts 218°
2026-05-04 15:48 43.23030 4.94009 34998 ft 398 kts 218°
2026-05-04 15:49 43.18466 4.89722 34996 ft 398 kts 217°
2026-05-04 15:49 43.13905 4.85449 34985 ft 397 kts 217°
2026-05-04 15:50 43.09338 4.81195 34986 ft 396 kts 217°
2026-05-04 15:50 43.04729 4.77059 34980 ft 398 kts 213°
2026-05-04 15:51 42.99906 4.73373 34969 ft 397 kts 213°
2026-05-04 15:51 42.95072 4.69707 34977 ft 397 kts 213°
2026-05-04 15:52 42.90246 4.66045 34980 ft 396 kts 213°
2026-05-04 15:52 42.85514 4.62472 34973 ft 396 kts 213°
2026-05-04 15:53 42.80645 4.58803 34971 ft 395 kts 213°
2026-05-04 15:53 42.75844 4.55190 34972 ft 394 kts 213°
2026-05-04 15:54 42.71053 4.51589 34973 ft 393 kts 212°
2026-05-04 15:54 42.66267 4.47997 34975 ft 393 kts 213°
2026-05-04 15:55 42.61493 4.44429 34971 ft 393 kts 212°
2026-05-04 15:55 42.56722 4.40860 34971 ft 391 kts 213°
2026-05-04 15:56 42.51955 4.37304 34971 ft 391 kts 213°
2026-05-04 15:56 42.47207 4.33767 34971 ft 390 kts 212°
2026-05-04 15:57 42.42458 4.30242 34971 ft 389 kts 212°
2026-05-04 15:57 42.37725 4.26724 34969 ft 388 kts 212°
2026-05-04 15:58 42.32994 4.23214 34970 ft 387 kts 212°
2026-05-04 15:58 42.28270 4.19725 34962 ft 387 kts 212°
2026-05-04 15:59 42.23545 4.16240 34958 ft 386 kts 212°
2026-05-04 15:59 42.18840 4.12764 34953 ft 385 kts 212°
2026-05-04 16:00 42.14085 4.09405 34943 ft 386 kts 211°
2026-05-04 16:00 42.09316 4.06093 34940 ft 386 kts 211°
2026-05-04 16:01 42.04541 4.02793 34941 ft 385 kts 211°
2026-05-04 16:01 41.99768 3.99494 34944 ft 385 kts 211°
2026-05-04 16:02 41.95029 3.96216 34946 ft 386 kts 211°
2026-05-04 16:03 41.87838 3.91270 34929 ft 385 kts 211°
2026-05-04 16:03 41.83053 3.87985 34941 ft 385 kts 211°
2026-05-04 16:04 41.78308 3.84734 34940 ft 386 kts 211°
2026-05-04 16:04 41.71124 3.79822 34940 ft 387 kts 211°
2026-05-04 16:05 41.66338 3.76558 34943 ft 387 kts 211°
2026-05-04 16:06 41.59151 3.71660 34939 ft 386 kts 211°
2026-05-04 16:07 41.49539 3.65129 34946 ft 388 kts 211°
2026-05-04 16:08 41.39902 3.58606 34943 ft 389 kts 211°
2026-05-04 16:09 41.27811 3.50467 34941 ft 390 kts 211°
2026-05-04 16:10 41.18109 3.44207 34947 ft 386 kts 203°
2026-05-04 16:11 41.10086 3.41906 34954 ft 400 kts 197°
2026-05-04 16:11 41.07353 3.41203 34951 ft 401 kts 197°
2026-05-04 16:12 40.90930 3.36893 34947 ft 401 kts 197°
2026-05-04 16:13 40.79971 3.34016 34949 ft 402 kts 197°
2026-05-04 16:14 40.68995 3.31146 34952 ft 403 kts 197°
2026-05-04 16:16 40.55240 3.27576 34958 ft 404 kts 197°
2026-05-04 16:17 40.41469 3.23997 34959 ft 404 kts 197°
2026-05-04 16:18 40.30428 3.21147 34957 ft 404 kts 197°
2026-05-04 16:19 40.16624 3.17596 34963 ft 404 kts 197°
2026-05-04 16:20 40.02829 3.14049 34973 ft 402 kts 197°
2026-05-04 16:21 39.94753 3.11962 33433 ft 391 kts 199°
2026-05-04 16:22 39.89783 3.09405 31997 ft 383 kts 212°
2026-05-04 16:22 39.82821 3.04252 29846 ft 385 kts 213°
2026-05-04 16:23 39.75814 2.99166 27714 ft 386 kts 212°
2026-05-04 16:24 39.67060 2.92814 24775 ft 400 kts 212°
2026-05-04 16:25 39.62145 2.89257 23397 ft 406 kts 212°
2026-05-04 16:26 39.52326 2.82185 21577 ft 400 kts 212°
2026-05-04 16:26 39.45077 2.76892 20205 ft 394 kts 216°
2026-05-04 16:27 39.41097 2.72144 19204 ft 387 kts 232°
2026-05-04 16:28 39.36075 2.64062 17453 ft 385 kts 232°
2026-05-04 16:28 39.31051 2.55503 16545 ft 399 kts 234°
2026-05-04 16:29 39.24488 2.44060 15611 ft 394 kts 234°
2026-05-04 16:30 39.19583 2.35869 14402 ft 372 kts 233°
2026-05-04 16:31 39.17393 2.30223 13752 ft 335 kts 251°
2026-05-04 16:31 39.15528 2.22274 13141 ft 286 kts 251°
2026-05-04 16:32 39.13824 2.15200 12121 ft 272 kts 251°
2026-05-04 16:33 39.12701 2.10569 11265 ft 269 kts 250°
2026-05-04 16:33 39.11571 2.05979 10368 ft 269 kts 250°
2026-05-04 16:34 39.10446 2.01388 9275 ft 268 kts 250°
2026-05-04 16:34 39.09884 1.99091 8796 ft 270 kts 250°
2026-05-04 16:35 39.08216 1.92241 7622 ft 265 kts 250°
2026-05-04 16:35 39.06569 1.85614 6837 ft 245 kts 251°
2026-05-04 16:36 39.06072 1.83601 6878 ft 228 kts 251°
2026-05-04 16:36 39.04842 1.79904 6454 ft 224 kts 242°
2026-05-04 16:37 39.03422 1.76374 5867 ft 221 kts 242°
2026-05-04 16:37 39.02722 1.74625 5550 ft 220 kts 243°
2026-05-04 16:37 39.01305 1.71212 5093 ft 206 kts 241°
2026-05-04 16:38 39.00000 1.68070 4423 ft 194 kts 242°
2026-05-04 16:39 38.98303 1.64006 4008 ft 152 kts 242°
2026-05-04 16:39 38.97342 1.61684 3217 ft 149 kts 241°
2026-05-04 16:40 38.96337 1.59250 2992 ft 157 kts 241°
2026-05-04 16:40 38.95314 1.56768 2799 ft 157 kts 242°
2026-05-04 16:41 38.94294 1.54293 2663 ft 152 kts 241°
2026-05-04 16:41 38.92826 1.50731 2099 ft 150 kts 241°
2026-05-04 16:42 38.91395 1.47258 1545 ft 132 kts 241°
2026-05-04 16:43 38.90550 1.45207 1173 ft 130 kts 240°
2026-05-04 16:43 38.89709 1.43172 827 ft 129 kts 241°
2026-05-04 16:43 38.89288 1.42151 658 ft 129 kts 241°
2026-05-04 16:44 38.87597 1.38077 20 ft 122 kts 242°
2026-05-04 16:45 38.87127 1.36913 16 ft 4 kts 242°
2026-05-04 16:46 38.87101 1.36739 14 ft 9 kts 269°
2026-05-04 16:46 38.87101 1.36676 14 ft 0 kts 272°
2026-05-04 16:47 38.87101 1.36674 14 ft 1 kts 272°
2026-05-04 16:48 38.87172 1.36593 15 ft 13 kts 50°
2026-05-04 16:48 38.87226 1.36710 15 ft 17 kts 64°
2026-05-04 16:49 38.87309 1.36916 14 ft 14 kts 61°
2026-05-04 16:49 38.87395 1.37124 14 ft 6 kts 63°
2026-05-04 16:50 38.87477 1.37104 14 ft 5 kts 331°
2026-05-04 16:50 38.87483 1.37100 15 ft 2 kts 332°
2026-05-04 16:51 38.87496 1.37091 14 ft 0 kts 332°